TimeCDT,TemperatureF,Dew PointF,Humidity,Sea Level PressureIn,VisibilityMPH,Wind Direction,Wind SpeedMPH,Gust SpeedMPH,PrecipitationIn,Events,Conditions,WindDirDegrees,DateUTC
12:53 AM,53.1,44.1,71,30.32,10.0,Calm,Calm,-,N/A,,Clear,0,2013-04-26 05:53:00
1:53 AM,52.0,46.0,80,30.31,10.0,Calm,Calm,-,N/A,,Clear,0,2013-04-26 06:53:00
2:53 AM,52.0,46.9,83,30.31,10.0,Calm,Calm,-,N/A,,Mostly Cloudy,0,2013-04-26 07:53:00
3:53 AM,52.0,46.9,83,30.29,10.0,Calm,Calm,-,0.00,Rain,Light Rain,0,2013-04-26 08:53:00
4:53 AM,53.1,48.0,83,30.28,10.0,Calm,Calm,-,0.00,,Overcast,0,2013-04-26 09:53:00
5:53 AM,52.0,48.9,89,30.28,10.0,ENE,6.9,-,0.00,,Overcast,60,2013-04-26 10:53:00
6:53 AM,54.0,46.0,75,30.33,10.0,Calm,Calm,-,N/A,,Partly Cloudy,0,2013-04-26 11:53:00
7:53 AM,53.1,48.0,83,30.38,10.0,Calm,Calm,-,N/A,,Mostly Cloudy,0,2013-04-26 12:53:00
8:53 AM,53.1,48.9,86,30.40,7.0,South,3.5,-,0.00,Rain,Light Rain,190,2013-04-26 13:53:00
9:07 AM,53.6,48.2,82,30.42,2.0,South,3.5,-,0.04,Rain,Rain,190,2013-04-26 14:07:00
9:18 AM,53.6,48.2,82,30.41,5.0,South,3.5,-,0.06,Rain,Light Rain,190,2013-04-26 14:18:00
9:53 AM,53.1,48.9,86,30.41,8.0,Calm,Calm,-,0.09,Rain,Light Rain,0,2013-04-26 14:53:00
10:53 AM,54.0,50.0,86,30.41,6.0,North,5.8,-,0.04,Rain,Light Rain,360,2013-04-26 15:53:00
11:53 AM,53.1,48.9,86,30.38,5.0,NE,8.1,-,0.11,Rain,Light Rain,40,2013-04-26 16:53:00
12:53 PM,53.1,48.9,86,30.43,10.0,SSW,6.9,-,0.02,,Overcast,200,2013-04-26 17:53:00
1:53 PM,52.0,48.9,89,30.38,3.0,Calm,Calm,-,0.11,Rain,Rain,0,2013-04-26 18:53:00
2:03 PM,51.8,48.2,88,30.38,2.0,East,3.5,-,0.04,Rain,Rain,80,2013-04-26 19:03:00
2:37 PM,51.8,48.2,88,30.38,2.5,East,3.5,-,0.17,Rain,Rain,80,2013-04-26 19:37:00
2:45 PM,51.8,48.2,88,30.32,3.0,East,9.2,-,0.20,Rain,Rain,90,2013-04-26 19:45:00
2:53 PM,51.1,48.9,92,30.32,3.0,East,8.1,-,0.23,Rain,Rain,80,2013-04-26 19:53:00
3:13 PM,51.8,48.2,88,30.30,8.0,East,8.1,-,0.01,Rain,Light Rain,90,2013-04-26 20:13:00
3:53 PM,52.0,48.9,89,30.30,10.0,Variable,3.5,-,0.01,,Mostly Cloudy,0,2013-04-26 20:53:00
4:53 PM,52.0,48.9,89,30.27,5.0,Calm,Calm,-,0.07,Rain,Light Rain,0,2013-04-26 21:53:00
5:51 PM,53.6,50.0,88,30.29,8.0,North,5.8,-,0.03,,Overcast,10,2013-04-26 22:51:00
5:53 PM,53.1,50.0,89,30.29,8.0,NNE,6.9,-,0.03,,Overcast,30,2013-04-26 22:53:00
6:16 PM,53.6,50.0,88,30.29,7.0,NE,4.6,-,0.00,Rain,Light Rain,40,2013-04-26 23:16:00
6:41 PM,53.6,50.0,88,30.29,9.0,NE,8.1,-,0.00,Rain,Light Rain,40,2013-04-26 23:41:00
6:53 PM,53.1,50.0,89,30.29,6.0,NNE,6.9,-,0.00,Rain,Light Rain,30,2013-04-26 23:53:00
7:21 PM,51.8,48.2,88,30.28,6.0,ENE,6.9,-,0.01,Rain,Light Rain,60,2013-04-27 00:21:00
7:30 PM,51.8,48.2,88,30.29,8.0,NE,8.1,-,0.01,Rain,Light Rain,40,2013-04-27 00:30:00
7:53 PM,52.0,48.9,89,30.32,5.0,NE,4.6,-,0.03,Rain,Rain,50,2013-04-27 00:53:00
8:07 PM,51.8,48.2,88,30.34,5.0,North,5.8,-,0.03,Rain,Rain,360,2013-04-27 01:07:00
8:26 PM,51.8,48.2,88,30.30,4.0,Calm,Calm,-,0.08,Rain,Light Rain,0,2013-04-27 01:26:00
8:53 PM,51.1,48.9,92,30.29,5.0,East,6.9,-,0.09,Rain,Light Rain,100,2013-04-27 01:53:00
9:01 PM,51.8,48.2,88,30.29,5.0,East,8.1,-,0.01,Rain,Light Rain,80,2013-04-27 02:01:00
9:10 PM,51.8,48.2,88,30.30,6.0,East,8.1,-,0.02,Rain,Light Rain,80,2013-04-27 02:10:00
9:20 PM,51.8,48.2,88,30.28,5.0,East,9.2,-,0.03,Rain,Light Rain,90,2013-04-27 02:20:00
9:46 PM,51.8,48.2,88,30.28,6.0,NE,8.1,-,0.05,Rain,Light Rain,40,2013-04-27 02:46:00
9:53 PM,51.1,48.9,92,30.28,5.0,East,5.8,-,0.05,Rain,Light Rain,100,2013-04-27 02:53:00
10:53 PM,51.1,48.9,92,30.31,5.0,SE,3.5,-,0.10,Rain,Light Rain,140,2013-04-27 03:53:00
11:45 PM,51.8,48.2,88,30.26,6.0,East,4.6,-,0.05,Rain,Light Rain,100,2013-04-27 04:45:00
11:53 PM,51.1,48.9,92,30.27,5.0,ESE,5.8,-,0.05,Rain,Light Rain,110,2013-04-27 04:53:00